Location: East Arcadia
(34.1056°N, 118.0176°W)
Time: 01:46:39
(UTC+00:00)

Cosmos 2369 - Pass Details

Date: 01 April 2023
Orbit: 839 x 855 km, 71.0° (Epoch: 08 June)

Event Time Altitude Azimuth Distance (km) Brightness Sun altitude
Rises 12:42:59 0° 202° (SSW) 3,393 6.5 -12.4°
Reaches altitude 10° 12:45:25 10° 204° (SSW) 2,464 5.8 -11.9°
Maximum altitude 12:51:05 80° 291° (WNW) 868 3.7 -10.7°
Drops below altitude 10° 12:56:49 10° 18° (NNE) 2,488 6.6 -9.6°
Sets 12:59:17 0° 20° (NNE) 3,428 7.3 -9.1°
